FW0960 Weather Reports


time (UTC)temp
C
wind
direction
speed
KPH
gust
KPH
rain 1hr
cm
rain 24hr
cm
rain mn
cm
humidity
%
barometer
mb
20260509231505 21 39 0.0 0.0 0.00 0.00 0.00 80 1010.0
20260509231002 21 39 0.0 0.0 0.00 0.00 0.00 79 1010.0
20260509230501 21 39 0.0 1.6 0.00 0.00 0.00 78 1009.9
20260509230006 21 39 0.0 1.6 0.00 0.00 0.00 78 1009.9
20260509225503 21 39 0.0 0.0 0.00 0.00 0.00 77 1009.8
20260509225003 21 39 0.0 0.0 0.00 0.00 0.00 76 1009.8
20260509224503 21 39 0.0 1.6 0.00 0.00 0.00 76 1009.8
20260509224005 21 39 0.0 1.6 0.00 0.00 0.00 76 1009.6
20260509223505 21 39 0.0 1.6 0.00 0.00 0.00 76 1009.7
20260509223003 21 39 0.0 1.6 0.00 0.00 0.00 76 1009.7
20260509222012 21 40 0.0 1.6 0.00 0.00 0.00 75 1009.8
20260509220939 22 40 0.0 1.6 0.00 0.00 0.00 75 1009.8
20260509220437 22 40 0.0 1.6 0.00 0.00 0.00 76 1009.9
20260509215440 22 43 0.0 8.0 0.00 0.00 0.00 77 1009.6
20260509214440 21 337 0.0 3.2 0.00 0.00 0.00 78 1009.6
20260509213941 21 338 0.0 3.2 0.00 0.00 0.00 77 1009.7
20260509213438 21 337 0.0 3.2 0.00 0.00 0.00 79 1009.5
20260509212939 21 336 0.0 3.2 0.00 0.00 0.00 79 1009.6
20260509212449 21 336 0.0 3.2 0.00 0.00 0.00 79 1009.6
20260509211438 21 334 0.0 3.2 0.00 0.00 0.00 80 1009.7
20260509211020 21 333 0.0 4.8 0.00 0.00 0.00 80 1009.8
20260509205936 21 334 0.0 3.2 0.00 0.00 0.00 79 1009.9
20260509205430 21 334 0.0 3.2 0.00 0.00 0.00 79 1009.9
20260509204929 21 333 0.0 3.2 0.00 0.00 0.00 79 1010.0
20260509204433 21 350 0.0 3.2 0.00 0.00 0.00 79 1010.0
20260509203427 21 355 1.6 3.2 0.00 0.00 0.00 80 1010.2
20260509202920 21 0 1.6 3.2 0.00 0.00 0.00 80 1010.3
20260509202413 21 355 0.0 3.2 0.00 0.00 0.00 82 1010.4
20260509201414 21 351 1.6 4.8 0.00 0.00 0.00 83 1010.5
20260509200906 21 348 1.6 4.8 0.00 0.00 0.00 82 1010.5
20260509200411 21 348 1.6 3.2 0.00 0.00 0.00 82 1010.6
20260509195910 21 348 0.0 3.2 0.00 0.00 0.00 84 1010.8
20260509195412 20 0 0.0 3.2 0.00 0.00 0.00 85 1010.9
20260509194914 20 340 0.0 3.2 0.00 0.00 0.00 85 1011.0
20260509193914 20 184 0.0 4.8 0.00 0.00 0.00 89 1011.1
20260509192905 18 217 0.0 6.4 0.00 0.00 0.00 90 1011.2
20260509192404 18 216 0.0 6.4 0.00 0.00 0.00 89 1011.3
20260509191904 18 223 0.0 3.2 0.00 0.00 0.00 90 1011.3
20260509191405 18 223 0.0 3.2 0.00 0.00 0.00 89 1011.4
20260509190404 18 191 0.0 3.2 0.00 0.00 0.00 90 1011.6
20260509185902 17 189 0.0 4.8 0.00 0.00 0.00 90 1011.6
20260509185406 17 86 0.0 4.8 0.00 0.00 0.00 90 1011.8
20260509184355 17 87 0.0 9.7 0.00 0.00 0.00 92 1011.9
20260509183856 17 31 0.0 1.6 0.00 0.00 0.00 92 1012.0
20260509183350 17 30 0.0 1.6 0.00 0.00 0.00 93 1012.1
20260509182352 17 32 0.0 1.6 0.00 0.00 0.00 93 1012.1
20260509181851 17 38 0.0 4.8 0.00 0.00 0.00 93 1012.2
20260509180849 16 40 0.0 1.6 0.00 0.00 0.00 93 1012.3
20260509180347 16 41 0.0 1.6 0.00 0.00 0.00 92 1012.2
20260509175349 16 42 0.0 3.2 0.00 0.00 0.00 91 1012.3
20260509174844 16 329 0.0 3.2 0.00 0.00 0.00 91 1012.3
20260509174344 16 5 0.0 3.2 0.00 0.00 0.00 89 1012.3
20260509173844 17 20 0.0 3.2 0.00 0.00 0.00 89 1012.4
20260509172846 17 345 1.6 3.2 0.00 0.00 0.00 86 1012.4
20260509172344 18 0 1.6 3.2 0.00 0.00 0.00 84 1012.5
20260509171846 18 5 1.6 3.2 0.00 0.00 0.00 82 1012.4
20260509171346 18 5 1.6 3.2 0.00 0.00 0.00 81 1012.2
20260509170847 18 20 1.6 3.2 0.00 0.00 0.00 81 1012.1
20260509165843 18 111 1.6 4.8 0.00 0.00 0.00 79 1012.4
20260509165338 19 64 0.0 3.2 0.00 0.00 0.00 80 1012.3
20260509164842 19 74 0.0 3.2 0.00 0.00 0.00 78 1012.4
20260509164340 19 82 0.0 0.0 0.00 0.00 0.00 77 1012.5
20260509163842 20 82 0.0 0.0 0.00 0.00 0.00 77 1012.5
20260509163340 20 82 0.0 0.0 0.00 0.00 0.00 76 1012.5
20260509162842 20 82 0.0 0.0 0.00 0.00 0.00 75 1012.2
20260509161836 21 82 0.0 1.6 0.00 0.00 0.00 74 1012.2
20260509161337 21 82 0.0 1.6 0.00 0.00 0.00 72 1012.2
20260509160838 21 82 0.0 1.6 0.00 0.00 0.00 71 1012.2
20260509160336 21 83 0.0 1.6 0.00 0.00 0.00 73 1012.3
20260509155833 21 86 0.0 1.6 0.00 0.00 0.00 73 1012.5
20260509155335 21 88 0.0 1.6 0.00 0.00 0.00 71 1012.7
20260509154835 21 98 0.0 1.6 0.00 0.00 0.00 70 1012.9
20260509154330 21 98 0.0 1.6 0.00 0.00 0.00 68 1013.0
20260509153834 21 101 0.0 6.4 0.00 0.00 0.00 67 1013.1
20260509153334 21 117 0.0 6.4 0.00 0.00 0.00 67 1013.2
20260509152332 21 161 0.0 4.8 0.00 0.00 0.00 66 1013.3
20260509151832 21 172 0.0 3.2 0.00 0.00 0.00 66 1013.3
20260509151329 21 178 0.0 1.6 0.00 0.00 0.00 65 1013.3
20260509150831 21 298 0.0 1.6 0.00 0.00 0.00 64 1013.4
20260509145808 21 203 1.6 4.8 0.00 0.00 0.00 64 1013.5
20260509145312 21 337 1.6 6.4 0.00 0.00 0.00 63 1013.6
20260509143817 21 261 0.0 1.6 0.00 0.00 0.00 66 1013.8
20260509142813 20 271 0.0 4.8 0.00 0.00 0.00 67 1013.6
20260509142309 20 145 0.0 4.8 0.00 0.00 0.00 66 1013.5
20260509141803 20 92 0.0 1.6 0.00 0.00 0.00 68 1013.6
20260509141303 20 136 0.0 3.2 0.00 0.00 0.00 69 1013.6
20260509140803 20 136 0.0 4.8 0.00 0.00 0.00 69 1013.6
20260509135804 19 161 0.0 3.2 0.00 0.00 0.00 70 1013.6
20260509135305 19 119 0.0 3.2 0.00 0.00 0.00 71 1013.7
20260509134804 18 130 0.0 3.2 0.00 0.00 0.00 72 1013.7
20260509134302 18 107 0.0 3.2 0.00 0.00 0.00 71 1013.8
20260509133803 18 117 0.0 4.8 0.00 0.00 0.00 72 1013.7
20260509133306 18 99 0.0 4.8 0.00 0.00 0.00 73 1013.7
20260509132809 18 163 0.0 8.0 0.00 0.00 0.00 73 1013.9
20260509131804 18 143 0.0 3.2 0.00 0.00 0.00 75 1014.0
20260509131306 17 148 0.0 3.2 0.00 0.00 0.00 76 1013.9
20260509130806 17 147 0.0 3.2 0.00 0.00 0.00 77 1013.8
20260509130308 17 150 0.0 3.2 0.00 0.00 0.00 77 1014.0
20260509125804 17 165 0.0 3.2 0.00 0.00 0.00 78 1013.9
20260509125308 17 178 0.0 3.2 0.00 0.00 0.00 78 1014.0
20260509124805 16 194 0.0 3.2 0.00 0.00 0.00 78 1014.0
20260509124312 16 189 0.0 3.2 0.00 0.00 0.00 79 1014.0
20260509123303 16 192 0.0 1.6 0.00 0.00 0.00 79 1013.9
20260509122808 16 192 0.0 3.2 0.00 0.00 0.00 79 1013.9
20260509122305 16 192 0.0 3.2 0.00 0.00 0.00 79 1013.9
20260509121301 16 166 0.0 0.0 0.00 0.00 0.00 80 1014.0
20260509120304 16 155 0.0 4.8 0.00 0.00 0.00 80 1014.1
20260509115753 16 130 0.0 4.8 0.00 0.00 0.00 80 1014.1
20260509115251 15 199 0.0 1.6 0.00 0.00 0.00 81 1014.0
20260509114314 15 251 0.0 3.2 0.00 0.00 0.00 82 1014.1
20260509113243 15 237 0.0 3.2 0.00 0.00 0.00 82 1014.1
20260509112738 15 138 0.0 6.4 0.00 0.00 0.00 82 1014.1
20260509112238 15 136 0.0 6.4 0.00 0.00 0.00 82 1014.1
20260509111739 15 135 0.0 6.4 0.00 0.00 0.00 82 1014.1
20260509111238 15 104 0.0 11.3 0.00 0.00 0.00 82 1014.2
20260509105236 15 123 0.0 3.2 0.00 0.00 0.00 82 1014.3
20260509104732 15 107 0.0 4.8 0.00 0.00 0.00 82 1014.2
20260509104238 15 103 0.0 4.8 0.00 0.00 0.00 82 1014.2
20260509103732 14 215 0.0 3.2 0.00 0.00 0.00 82 1014.2
20260509102731 14 234 0.0 4.8 0.00 0.00 0.00 82 1014.2
20260509102234 14 200 0.0 3.2 0.00 0.00 0.00 82 1014.2
20260509101732 14 208 0.0 3.2 0.00 0.00 0.00 82 1014.2
20260509100725 14 150 0.0 3.2 0.00 0.00 0.00 82 1014.1
20260509095713 14 148 0.0 3.2 0.00 0.00 0.00 81 1014.1
20260509095204 14 145 0.0 3.2 0.00 0.00 0.00 81 1014.1
20260509094208 14 121 0.0 1.6 0.00 0.00 0.00 81 1014.0
20260509093705 14 123 0.0 1.6 0.00 0.00 0.00 80 1014.0
20260509093206 14 122 0.0 1.6 0.00 0.00 0.00 80 1013.9
20260509092712 14 122 0.0 1.6 0.00 0.00 0.00 80 1013.9
20260509091711 14 123 0.0 8.0 0.00 0.00 0.00 79 1013.9
20260509085704 14 168 0.0 3.2 0.00 0.00 0.00 79 1014.0
20260509085204 14 168 0.0 3.2 0.00 0.00 0.00 79 1014.0
20260509084706 14 198 0.0 3.2 0.00 0.00 0.00 79 1014.0
20260509083703 14 202 0.0 3.2 0.00 0.00 0.00 79 1014.0
20260509082159 14 200 0.0 3.2 0.00 0.00 0.00 78 1014.1
20260509081658 14 201 0.0 3.2 0.00 0.00 0.00 78 1014.1
20260509080652 14 197 0.0 1.6 0.00 0.00 0.00 77 1014.1
20260509080157 14 195 0.0 3.2 0.00 0.00 0.00 77 1014.2
20260509075652 14 195 0.0 3.2 0.00 0.00 0.00 77 1014.2
20260509075148 13 195 0.0 3.2 0.00 0.00 0.00 77 1014.3
20260509074705 13 195 0.0 3.2 0.00 0.00 0.00 76 1014.3
20260509074149 13 196 0.0 3.2 0.00 0.00 0.00 76 1014.4
20260509073649 13 192 0.0 3.2 0.00 0.00 0.00 76 1014.5
20260509072654 13 188 0.0 3.2 0.00 0.00 0.00 76 1014.5
20260509071649 13 184 0.0 3.2 0.00 0.00 0.00 75 1014.4
20260509071147 13 184 0.0 3.2 0.00 0.00 0.00 75 1014.3
20260509070645 13 184 0.0 3.2 0.00 0.00 0.00 75 1014.4
20260509070145 13 191 0.0 3.2 0.00 0.00 0.00 75 1014.4
20260509065646 13 191 0.0 3.2 0.00 0.00 0.00 75 1014.3
20260509065147 13 174 0.0 3.2 0.00 0.00 0.00 74 1014.3
20260509064647 13 174 0.0 4.8 0.00 0.00 0.00 74 1014.4
20260509064143 13 174 0.0 4.8 0.00 0.00 0.00 74 1014.5
20260509062642 13 141 0.0 1.6 0.00 0.00 0.00 73 1014.4
20260509062149 13 142 0.0 1.6 0.00 0.00 0.00 73 1014.5
20260509061144 13 136 0.0 1.6 0.00 0.00 0.00 72 1014.4
20260509060637 13 136 0.0 1.6 0.00 0.00 0.00 71 1014.4
20260509060144 13 136 0.0 1.6 0.00 0.00 0.00 71 1014.4
20260509055640 13 132 0.0 1.6 0.00 0.00 0.00 71 1014.5
20260509055145 13 132 0.0 1.6 0.00 0.00 0.00 71 1014.6
20260509054638 13 133 0.0 3.2 0.00 0.00 0.00 71 1014.5
20260509053640 13 133 0.0 1.6 0.00 0.00 0.00 70 1014.5
20260509052635 13 133 0.0 1.6 0.00 0.00 0.00 70 1014.5
20260509052133 13 133 0.0 4.8 0.00 0.00 0.00 70 1014.6
20260509051636 13 133 0.0 4.8 0.00 0.00 0.00 70 1014.6
20260509050133 13 240 0.0 3.2 0.00 0.00 0.00 70 1014.6
20260509045633 13 238 0.0 3.2 0.00 0.00 0.00 70 1014.8
20260509045134 13 247 0.0 3.2 0.00 0.00 0.00 70 1014.7
20260509044628 13 198 0.0 3.2 0.00 0.00 0.00 70 1014.7
20260509044131 13 198 0.0 4.8 0.00 0.00 0.00 69 1014.7
20260509043623 13 198 0.0 4.8 0.00 0.00 0.00 69 1014.9
20260509043124 13 190 0.0 1.6 0.00 0.00 0.00 69 1014.9
20260509042628 13 190 0.0 1.6 0.00 0.00 0.00 69 1015.0
20260509041617 13 190 0.0 3.2 0.00 0.00 0.00 68 1015.1
20260509041120 13 189 0.0 3.2 0.00 0.00 0.00 68 1015.1
20260509040115 13 201 0.0 4.8 0.00 0.00 0.00 68 1015.1
20260509035611 13 200 0.0 4.8 0.00 0.00 0.00 68 1015.0
20260509035113 13 203 0.0 3.2 0.00 0.00 0.00 68 1015.0
20260509034611 13 203 0.0 3.2 0.00 0.00 0.00 68 1015.1
20260509034110 13 197 0.0 3.2 0.00 0.00 0.00 68 1015.1
20260509033610 13 197 0.0 3.2 0.00 0.00 0.00 67 1015.2
20260509032605 13 202 0.0 3.2 0.00 0.00 0.00 68 1015.2
20260509032108 13 205 0.0 3.2 0.00 0.00 0.00 67 1015.2
20260509031605 13 207 0.0 3.2 0.00 0.00 0.00 67 1015.1
20260509031109 13 207 0.0 3.2 0.00 0.00 0.00 67 1014.9
20260509030603 13 206 0.0 1.6 0.00 0.00 0.00 67 1015.0
20260509030104 13 206 0.0 3.2 0.00 0.00 0.00 66 1014.8
20260509025609 13 206 0.0 3.2 0.00 0.00 0.00 66 1014.8
20260509025103 13 202 0.0 1.6 0.00 0.00 0.00 66 1014.8
20260509024609 13 202 0.0 4.8 0.00 0.00 0.00 66 1014.8
20260509024111 13 202 0.0 4.8 0.00 0.00 0.00 66 1014.9
20260509023601 13 202 0.0 0.0 0.00 0.00 0.00 65 1014.9
20260509023104 13 202 0.0 0.0 0.00 0.00 0.00 65 1014.9
20260509022110 13 202 0.0 1.6 0.00 0.00 0.00 66 1015.0
20260509021603 13 202 0.0 3.2 0.00 0.00 0.00 65 1015.1
20260509021105 13 202 0.0 3.2 0.00 0.00 0.00 66 1015.0
20260509020604 13 205 0.0 3.2 0.00 0.00 0.00 66 1014.9
20260509020105 13 205 0.0 3.2 0.00 0.00 0.00 66 1014.9
20260509015604 14 205 0.0 3.2 0.00 0.00 0.00 66 1014.9
20260509015105 14 205 0.0 3.2 0.00 0.00 0.00 66 1015.0
20260509014605 14 205 0.0 3.2 0.00 0.00 0.00 66 1015.0
20260509014106 14 203 0.0 1.6 0.00 0.00 0.00 66 1014.8
20260509013602 14 199 0.0 3.2 0.00 0.00 0.00 66 1015.0
20260509012549 14 198 0.0 4.8 0.00 0.00 0.00 66 1014.8
20260509012042 14 198 0.0 4.8 0.00 0.00 0.00 66 1014.8
20260509011549 15 186 0.0 4.8 0.00 0.00 0.00 67 1014.6
20260509011036 15 189 0.0 4.8 0.00 0.00 0.00 67 1014.5
20260509010535 15 189 0.0 4.8 0.00 0.00 0.00 67 1014.6
20260509010033 15 166 0.0 1.6 0.00 0.00 0.00 67 1014.5
20260509005534 15 167 0.0 3.2 0.00 0.00 0.00 67 1014.4
20260509004029 15 166 0.0 1.6 0.00 0.00 0.00 64 1014.3
20260509003533 15 166 0.0 4.8 0.00 0.00 0.00 64 1014.2
20260509002528 16 187 0.0 1.6 0.00 0.00 0.00 63 1014.3
20260509002027 16 187 0.0 1.6 0.00 0.00 0.00 62 1014.2
20260509001527 16 187 0.0 3.2 0.00 0.00 0.00 61 1014.2
20260509000528 16 187 0.0 3.2 0.00 0.00 0.00 60 1014.1
20260508235526 16 113 0.0 3.2 0.00 0.00 0.00 58 1013.9
20260508234527 17 112 0.0 3.2 0.00 0.00 0.00 56 1013.8
20260508234027 18 117 0.0 1.6 0.00 0.00 0.00 54 1013.9
20260508233528 18 117 0.0 4.8 0.00 0.00 0.00 50 1013.8
20260508233029 18 120 0.0 4.8 0.00 0.00 0.00 46 1013.7
20260508232525 18 141 1.6 4.8 0.00 0.00 0.00 47 1013.7